Simultaneous Nadir Overpasses (SNOs) Predictions

Prediction of SNOs between AQUA and NOAA-19 Satellite Orbit:

Table of predicted SNOs for the next 14.0 days since TLE Epoch: 9/9/2023
Index Date (AQUA) Time (AQUA) Lat,Lon (AQUA) SZA (AQUA ) Date (NOAA-19) Time (NOAA-19) Lat,Lon (NOAA-19) SZA (NOAA-19 ) Distance(km) Time Diff (sec)
1 09/09/2023 09:46:48 76.24, 25.36 70.95 09/09/2023 09:46:29 76.23, 25.34 70.94 1.80 19
2 09/09/2023 10:36:18 -76.56,-168.04 108.70 09/09/2023 10:37:27 -76.56,-166.14 108.76 49.19 69
3 09/11/2023 14:28:30 76.20, -44.92 71.73 09/11/2023 14:27:53 76.21, -45.00 71.75 2.41 37
4 09/11/2023 15:17:55 -76.28, 122.49 108.18 09/11/2023 15:18:57 -76.28, 122.48 108.19 0.33 62
5 09/13/2023 19:10:12 76.20,-115.30 72.55 09/13/2023 19:09:17 76.19,-115.36 72.56 1.85 55
6 09/13/2023 19:59:37 -76.27, 52.12 107.36 09/13/2023 20:00:21 -76.26, 52.11 107.38 1.76 44
7 09/15/2023 23:51:53 76.18, 174.38 73.37 09/15/2023 23:50:41 76.17, 174.26 73.37 3.20 72
8 09/16/2023 00:41:18 -76.25, -18.21 106.55 09/16/2023 00:41:44 -76.27, -18.13 106.53 2.90 26
9 09/18/2023 05:22:58 -76.21, -88.48 105.75 09/18/2023 05:23:08 -76.23, -88.56 105.73 2.87 10
10 09/20/2023 10:04:38 -76.21,-158.86 104.91 09/20/2023 10:04:31 -76.23,-158.85 104.89 2.12 7
11 09/20/2023 10:54:09 76.51, 7.77 75.45 09/20/2023 10:55:18 76.53, 9.63 75.41 48.33 69
12 09/22/2023 14:46:17 -76.19, 130.81 104.08 09/22/2023 14:45:54 -76.22, 130.84 104.05 3.21 23



Historial Predications of SNOs between AQUA and NOAA-19
